Location: *
(45.1961°N, 1.9694°E)
Time: 00:20:12
(UTC+00:00)

S3M - Pass Details

Date: 25 August 2019
Orbit: 948 x 1005 km, 83.0° (Epoch: 19 September)

Event Time Altitude Azimuth Distance (km) Brightness Sun altitude
Rises 20:15:42 0° 193° (SSW) 3,686 6.8 -15.7°
Reaches altitude 10° 20:18:14 10° 196° (SSW) 2,734 6.2 -16.0°
Maximum altitude 20:24:29 70° 280° (W) 1,036 4.3 -16.9°
Drops below altitude 10° 20:30:41 10° 4° (N) 2,713 6.8 -17.8°
Sets 20:33:12 0° 7° (N) 3,656 7.4 -18.2°
